Regional Weather Roundup
Issued by NWS

Home | Current Version | Previous Version | Graphics & Text | Print | Product List | Glossary Off
Versions: 1 2 3 4 5 6 7 8 9 10 11 12 13 14 15 16 17 18 19 20 21 22 23 24 25 26 27 28 29 30 31 32 33 34 35 36 37 38 39 40 41 42 43 44 45 46 47 48 49 50

560
ASUS43 KMKX 081611
RWRWI

WISCONSIN REGIONAL WEATHER ROUNDUP
NATIONAL WEATHER SERVICE MILWAUKEE/SULLIVAN WI
1000 AM CST THU DEC 08 2016

NOTE: "FAIR" INDICATES FEW OR NO CLOUDS BELOW 12,000 FEET WITH NO
SIGNIFICANT WEATHER AND/OR OBSTRUCTIONS TO VISIBILITY.

WIZ001-002-006>008-014>016-023>028-081700-
NORTHWEST WISCONSIN

CITY           SKY/WX    TMP DP  RH WIND       PRES   REMARKS
SUPERIOR ARPT  CLOUDY    24  16  70 N14G22    30.27R WCI  12
ASHLAND        LGT SNOW  25  20  81 NW9       30.20R WCI  15
HAYWARD        PTSUNNY   21  15  78 NW7       30.20R WCI  12
SIREN          CLOUDY    22  15  74 NW16      30.27R WCI   8
CUMBERLAND     LGT SNOW  21  14  73 NW14G22   30.23R WCI   8
RICE LAKE      LGT SNOW  22  17  80 W12       30.25R WCI  11
CHETEK         CLOUDY    23  17  78 NW9       30.24R WCI  13
LADYSMITH      CLOUDY    24  17  77 NW15G26   30.20R WCI  11
EAU CLAIRE     CLOUDY    23  17  78 NW14      30.25R WCI  11
MENOMONIE      CLOUDY    23  17  78 W14G21    30.27R WCI  11
NEW RICHMOND   CLOUDY    22  16  79 NW12G17   30.29R WCI  10
OSCEOLA        FLURRIES  23  17  80 NW10G18   30.33R WCI  12
$$

WIZ003>005-009-010-017-018-081700-
NORTH CENTRAL WISCONSIN

CITY           SKY/WX    TMP DP  RH WIND       PRES   REMARKS
MANITOWISH WTR LGT SNOW  22  21  94 NW10G16   30.07R WCI  11
ARBOR VITAE    FLURRIES  24  19  81 NW13G18   30.07R WCI  13
WOODRUFF       FLURRIES  24  19  81 NW13G18   30.07R WCI  13
RHINELANDER    FLURRIES  24  19  81 NW7       30.07R WCI  16
EAGLE RIVER    FLURRIES  24  17  76 NW10      30.05R WCI  13
LAND O LAKES   LGT SNOW  24  21  85 NW8G16    30.05R VSB 1   WCI  16
PHILLIPS       CLOUDY    21  17  83 NW10      30.12R WCI  10
TOMAHAWK       PTSUNNY   22  16  77 W12G20    30.11R WCI  11
MEDFORD        CLOUDY    21  16  81 NW9G17    30.14R WCI  10
MERRILL        CLOUDY    23  17  80 NW12      30.12R WCI  11
$$

WIZ029-030-035-036-043>047-081700-
CENTRAL WISCONSIN

CITY           SKY/WX    TMP DP  RH WIND       PRES   REMARKS
WAUSAU         CLOUDY    21  16  81 W10       30.13R WCI  10
MOSINEE        CLOUDY    19  18  93 W14G20    30.15R FOG     WCI   6
MARSHFIELD     CLOUDY    20  15  81 W10       30.16R WCI   9
STEVENS POINT  CLOUDY    19  14  82 W7        30.17R WCI   9
WAUPACA        CLOUDY    23  16  73 W9G17     30.17R WCI  13
WAUTOMA        CLOUDY    20  14  77 W13       30.20R WCI   7
WISC RAPIDS    CLOUDY    20  15  81 NW13G21   30.20R WCI   7
CAMP DOUGLAS   CLOUDY    21  14  73 W14       30.23R WCI   8
$$

WIZ011>013-019>022-031-037>040-048>050-081700-
NORTHEAST WISCONSIN

CITY           SKY/WX    TMP DP  RH WIND       PRES   REMARKS
ANTIGO         CLOUDY    22  17  81 W14G20    30.08R WCI   9
SHAWANO        MOSUNNY   25  17  71 W8        30.12R WCI  16
OCONTO         SUNNY     26  15  65 W14G22    30.09R WCI  14
STURGEON BAY   CLOUDY    25  19  78 W16G23    30.06R WCI  12
GREEN BAY      FLURRIES  25  17  72 W20       30.11R WCI  11
MANITOWOC      FLURRIES  23  15  71 W21G28    30.11R WCI   8
APPLETON       PTSUNNY   21  12  68 W15G22    30.11R WCI   8
CLINTONVILLE   SUNNY     25  16  68 W15       30.13R WCI  12
OSHKOSH        CLOUDY    21  13  71 W18G26    30.15R WCI   6
$$

WIZ032>034-041-042-053>061-081700-
SOUTHWEST WISCONSIN

CITY           SKY/WX    TMP DP  RH WIND       PRES   REMARKS
LA CROSSE      CLOUDY    24  15  68 NW13      30.30R WCI  12
SPARTA         CLOUDY    21  15  78 W9        30.27R WCI  10
VIROQUA        CLOUDY    18  14  86 W13G18    30.25R WCI   5
BOSCOBEL       CLOUDY    21  12  68 W8        30.33R WCI  11
PRAIRIE DU CHI FLURRIES  21  12  68 W15       30.34R WCI   7
PLATTEVILLE    CLOUDY    18  13  82 W17G23    30.31R WCI   2
$$

WIZ056-057-062-063-064-067-068-081700-
SOUTH CENTRAL WISCONSIN

CITY           SKY/WX    TMP DP  RH WIND       PRES   REMARKS
REEDSBURG      FLURRIES  19  13  77 W18       30.25R WCI   4
BARABOO/DELLS  FLURRIES  19  12  77 W10G16    30.24R WCI   7
LONE ROCK      CLOUDY    20  12  71 W14       30.29R WCI   7
MINERAL POINT  FLURRIES  19  14  79 W16       30.26R WCI   5
MADISON        MOSUNNY   18  10  71 W15       30.23R WCI   4
MIDDLETON      SUNNY     20  14  75 W17       30.24R WCI   6
WATERTOWN      PTSUNNY   19  12  75 W15       30.21R WCI   4
MONROE         CLOUDY    18  10  73 W17G23    30.26R WCI   2
JANESVILLE     MOSUNNY   19  10  68 W15G22    30.26R WCI   5
$$

WIZ051-052-058>065-066-070>072-081700-
SOUTHEAST WISCONSIN

CITY           SKY/WX    TMP DP  RH WIND       PRES   REMARKS
MILWAUKEE      FLURRIES  21   9  59 W22G30    30.19R WCI   5
WAUKESHA       CLOUDY    18  10  73 W17G26    30.20R WCI   2
MILWAUKEE/TIMM PTSUNNY   19   9  63 W22       30.20R WCI   3
RACINE         MOSUNNY   20   9  62 W20G28    30.21R WCI   4
BURLINGTON     PTSUNNY   22  16  76 W18G25    30.23R WCI   8
KENOSHA        PTSUNNY   19  10  68 W21G29    30.22R WCI   3
FOND DU LAC    PTSUNNY   21  12  68 W18G24    30.17R WCI   6
SHEBOYGAN      LGT SNOW  21  13  71 W21G30    30.13R WCI   5
WEST BEND      NOT AVBL
JUNEAU         CLOUDY    17  11  76 W16G24    30.21R WCI   2
$$

LSZ147-162-081700-
LAKE SUPERIOR

STATION/POSITION TIME  TEMP    WIND        PRES    WAVE
                       AIR SEA DIR/SP/G            HT/PER
                 (UTC) (F)     (DEG/KT/KT) (MB)    (FT/S)
DEVILS ISLAND    1600   27     340/ 23/ 27 1023.2R
PORT WING        1540   27     320/ 19/ 24 1023.4R
SAXON HARBOR     1540   28     330/ 19/ 24 1021.0R
$$

LMZ867-665-643>646-081700-
LAKE MICHIGAN

STATION/POSITION TIME  TEMP    WIND        PRES    WAVE
                       AIR SEA DIR/SP/G            HT/PER
                 (UTC) (F)     (DEG/KT/KT) (MB)    (FT/S)
CHAMBERS ISLAND  1540   26     260/  9/ 15 1016.6R
NORTHPORT PIER   1603   29     290/ 15/ 23 1016.6
SISTER BAY       1551   29     350/ 24/ 30   N/A
ALGOMA LAKESHORE 1551          300/ 11/ 19   N/A
KEWAUNEE LAKESHO 1548   22     290/ 17/ 24 1018.0R
SHEBOYGAN LAKESH 1600   21     280/ 22/ 30 1021.0R
PORT WASHINGTON  1602   22     270/ 11/ 25 1022.0S
MILWAUKEE LAKESH 1550   21     270/ 20/ 25   N/A
KENOSHA   LAKESH 1600   19     260/ 20/ 26 1023.4
$$

TC  - TEMPERATURE IN CELSIUS
VSB - VISIBILITY IN STATUTE MILES
WCI - WIND CHILL INDEX
HX  - HEAT INDEX





USA.gov is the U.S. government's official web portal to all federal, state and local government web resources and services.